Ad Dammam, Saudi Arabia

5:23 AM +03 on October 18, 2017 (GMT +0300)
Ad Dammam

Weather History for 40416 - June, 2013

Change the Weather History Date:

Friday, June 28, 2013

  Actual Average Record
Temperature  
Mean Temperature 101 °F -  
Max Temperature 116 °F 108 °F - ()
Min Temperature 86 °F 84 °F - ()
Cooling Degree Days 36    
Growing Degree Days 51 (Base 50)    
Moisture  
Dew Point 44 °F    
Average Humidity 16    
Maximum Humidity 33    
Minimum Humidity 4    
Precipitation  
Precipitation 0.00 in 0.00 in - ()
Sea Level Pressure  
Sea Level Pressure 29.38 in    
Wind  
Wind Speed 7 mph ()    
Max Wind Speed 18 mph    
Max Gust Speed -    
Visibility 4.8 miles    
Events      
T = Trace of Precipitation, MM = Missing Value Source: Averaged Metar Reports

Daily Weather History Graph

Daily Weather History Graph

Search for Another Location

Airport or City:

Trip Planner

Search our weather history database for the weather conditions in past years. The results will help you decide how hot, cold, wet, or windy it might be!

Date:

Astronomy

Jun. 28, 2013 Rise Set
Actual Time 4:49 AM +03 6:35 PM +03
Civil Twilight 4:23 AM +03 7:01 PM +03
Nautical Twilight 3:51 AM +03 7:33 PM +03
Astronomical Twilight 3:18 AM +03 8:06 PM +03
Moon 10:29 PM +03 (6/28) 9:58 AM +03 (6/28)
Length of Visible Light 14h 38m
Length of Day
13h 46m
Waning Gibbous, 69% of the Moon is Illuminated
Jun 28
Waning Gibbous
Jun 30
Last Quarter
Jul 8
New
Jul 16
First Quarter
Jul 22
Full

Hourly Weather History & Observations

Time (+03) Temp. Heat Index Dew Point Humidity Pressure Visibility Wind Dir Wind Speed Gust Speed Precip Events Conditions
12:00 AM 89 °F - 57 °F 24% 29.42 in 6 mi WSW 6.9 mph - -  
12:00 AM 89.6 °F 88.1 °F 57.2 °F 33% 29.42 in - WSW 6.9 mph - N/A   Clear
1:00 AM 87.8 °F - 48.2 °F 25% 29.42 in - West 6.9 mph - N/A   Clear
2:00 AM 89.6 °F - 44.6 °F 21% 29.39 in - West 9.2 mph - N/A   Clear
3:00 AM 88 °F - 45 °F 13% 29.40 in 6 mi West 6.9 mph - -  
3:00 AM 87.8 °F - 44.6 °F 22% 29.39 in - West 6.9 mph - N/A   Clear
4:00 AM 87.8 °F - 41.0 °F 19% 29.39 in - West 5.8 mph - N/A   Clear
5:00 AM 86.0 °F - 48.2 °F 27% 29.42 in - West 8.1 mph - N/A   Clear
6:00 AM 88 °F - 45 °F 13% 29.42 in 4 mi West 6.9 mph - -   Widespread Dust
6:00 AM 87.8 °F - 44.6 °F 22% 29.42 in 3.7 mi West 6.9 mph - N/A   Clear
7:00 AM 91.4 °F - 42.8 °F 18% 29.42 in 3.7 mi West 6.9 mph - N/A   Clear
8:00 AM 98.6 °F - 39.2 °F 13% 29.42 in 3.7 mi West 10.4 mph - N/A   Clear
9:00 AM 104 °F - 41 °F 6% 29.43 in 4 mi WNW 13.8 mph - -   Widespread Dust
9:00 AM 104.0 °F - 41.0 °F 12% 29.42 in 3.7 mi WNW 13.8 mph - N/A   Clear
1:00 PM 116.6 °F - 33.8 °F 6% 29.39 in 4.3 mi NNW 18.4 mph - N/A   Clear
3:00 PM 111 °F - 39 °F 4% 29.35 in 5 mi NNE 16.1 mph - -   Widespread Dust
3:00 PM 111.2 °F - 39.2 °F 9% 29.36 in 5.0 mi NNE 16.1 mph - N/A   Clear
4:00 PM 109.4 °F - 39.2 °F 9% 29.33 in 5.0 mi East 11.5 mph - N/A   Clear
5:00 PM 105.8 °F - 35.6 °F 9% 29.33 in 5.6 mi East 9.2 mph - N/A   Clear
6:00 PM 104 °F - 37 °F 5% 29.35 in 6 mi East 6.9 mph - -   Widespread Dust
6:00 PM 104.0 °F - 37.4 °F 10% 29.33 in 5.6 mi East 6.9 mph - N/A   Clear
7:00 PM 100.4 °F - 35.6 °F 11% 29.36 in 4.3 mi ESE 3.5 mph - N/A   Clear
8:00 PM 96.8 °F - 50.0 °F 20% 29.36 in 5.0 mi South 3.5 mph - N/A   Clear
9:00 PM 104 °F - 37 °F 5% 29.35 in 6 mi East 6.9 mph - -   Widespread Dust
9:00 PM 93.2 °F 91.9 °F 57.2 °F 30% 29.36 in 5.0 mi South 8.1 mph - N/A   Clear
10:00 PM 93.2 °F 90.8 °F 53.6 °F 26% 29.36 in 5.0 mi South 4.6 mph - N/A   Clear
11:00 PM 91.4 °F - 50.0 °F 24% 29.36 in 5.0 mi West 2.3 mph - N/A   Clear